When you browse on this site, cookies collect data to enhance your experience and personalize the content and advertising you see.
Visit our Privacy Policy to learn more. By continuing to use the site, you agree to this use of cookies and data.
  • en Suisse
  • Liste des pays
  • À 7 jours
  • Température de l'eau
  • Carte satellitaire
  • Carte météo
  • Widgets météo
  • user-avatar
    Se connecter

    Météo par heure à Barra

    Ce jour, 22 Janvier, Mardi

    Heure Température Précipitation Vent Pression Humidité
    00:00 +25°C° 0.4 mm 3 m/s 748 mmHg 93%
    01:00 +25°C° 0.4 mm 3 m/s 748 mmHg 94%
    02:00 +25°C° 0.5 mm 3 m/s 747 mmHg 94%
    03:00 +24°C° 0.5 mm 3 m/s 747 mmHg 95%
    04:00 +24°C° 0 mm 3 m/s 747 mmHg 95%
    05:00 +25°C° 0.8 mm 3 m/s 747 mmHg 95%
    06:00 +25°C° 0.8 mm 3 m/s 747 mmHg 95%
    07:00 +25°C° 0.8 mm 3 m/s 747 mmHg 95%
    08:00 +25°C° 0.9 mm 3 m/s 747 mmHg 93%
    09:00 +26°C° 0.9 mm 3 m/s 747 mmHg 92%
    10:00 +26°C° 0.9 mm 3 m/s 747 mmHg 90%
    11:00 +27°C° 0.8 mm 4 m/s 747 mmHg 87%
    12:00 +28°C° 0.8 mm 4 m/s 747 mmHg 83%
    13:00 +29°C° 0.8 mm 4 m/s 747 mmHg 79%
    14:00 +29°C° 0.5 mm 4 m/s 746 mmHg 77%
    15:00 +29°C° 0.5 mm 4 m/s 746 mmHg 74%
    16:00 +30°C° 0.5 mm 4 m/s 746 mmHg 72%
    17:00 +29°C° 0.2 mm 4 m/s 746 mmHg 77%
    18:00 +27°C° 0.2 mm 4 m/s 746 mmHg 83%
    19:00 +26°C° 0.2 mm 3 m/s 746 mmHg 88%
    20:00 +26°C° 0.3 mm 3 m/s 747 mmHg 90%
    21:00 +26°C° 0.3 mm 3 m/s 747 mmHg 93%
    22:00 +25°C° 0.3 mm 3 m/s 748 mmHg 95%
    23:00 +25°C° 0.4 mm 3 m/s 747 mmHg 95%

    Demain, 23 Janvier, Mercredi

    Heure Température Précipitation Vent Pression Humidité
    00:00 +25°C° 0.4 mm 3 m/s 747 mmHg 96%
    01:00 +25°C° 0.4 mm 3 m/s 747 mmHg 96%
    02:00 +25°C° 0.8 mm 3 m/s 746 mmHg 96%
    03:00 +25°C° 0.8 mm 3 m/s 746 mmHg 96%
    04:00 +25°C° 0.8 mm 4 m/s 746 mmHg 96%
    05:00 +25°C° 1.2 mm 4 m/s 746 mmHg 95%
    06:00 +25°C° 1.2 mm 3 m/s 746 mmHg 95%
    07:00 +26°C° 1.2 mm 3 m/s 747 mmHg 95%
    08:00 +26°C° 1.8 mm 3 m/s 747 mmHg 93%
    09:00 +27°C° 1.8 mm 4 m/s 747 mmHg 92%
    10:00 +27°C° 1.8 mm 4 m/s 747 mmHg 91%
    11:00 +28°C° 2.4 mm 4 m/s 746 mmHg 89%
    12:00 +29°C° 2.4 mm 4 m/s 746 mmHg 88%
    13:00 +29°C° 2.4 mm 4 m/s 746 mmHg 86%
    14:00 +29°C° 2.1 mm 3 m/s 745 mmHg 86%
    15:00 +29°C° 2.1 mm 3 m/s 745 mmHg 87%
    16:00 +29°C° 2.1 mm 3 m/s 745 mmHg 87%
    17:00 +28°C° 2.4 mm 3 m/s 745 mmHg 89%
    18:00 +27°C° 2.4 mm 2 m/s 745 mmHg 91%
    19:00 +26°C° 2.4 mm 2 m/s 746 mmHg 94%
    20:00 +26°C° 1.7 mm 2 m/s 746 mmHg 94%
    21:00 +26°C° 1.7 mm 2 m/s 746 mmHg 95%
    22:00 +26°C° 1.7 mm 2 m/s 747 mmHg 95%
    23:00 +26°C° 2 mm 2 m/s 747 mmHg 95%

    Après-demain, 24 Janvier, Jeudi

    Heure Température Précipitation Vent Pression Humidité
    00:00 +26°C° 2 mm 2 m/s 746 mmHg 95%
    01:00 +26°C° 2 mm 2 m/s 746 mmHg 96%
    02:00 +26°C° 0.9 mm 2 m/s 746 mmHg 96%
    03:00 +26°C° 0.9 mm 2 m/s 745 mmHg 96%
    04:00 +25°C° 0.9 mm 2 m/s 745 mmHg 97%
    05:00 +26°C° 0.3 mm 2 m/s 745 mmHg 96%
    06:00 +26°C° 0.3 mm 2 m/s 746 mmHg 96%
    07:00 +26°C° 0.3 mm 2 m/s 746 mmHg 95%
    08:00 +27°C° 0.3 mm 2 m/s 746 mmHg 92%
    09:00 +28°C° 0.3 mm 2 m/s 746 mmHg 88%
    10:00 +29°C° 0.3 mm 2 m/s 746 mmHg 84%
    11:00 +30°C° 0.3 mm 2 m/s 746 mmHg 80%
    12:00 +31°C° 0.3 mm 2 m/s 746 mmHg 76%
    13:00 +31°C° 0.3 mm 3 m/s 745 mmHg 71%
    14:00 +31°C° 0.3 mm 3 m/s 745 mmHg 73%
    15:00 +31°C° 0.3 mm 3 m/s 744 mmHg 74%
    16:00 +30°C° 0.3 mm 3 m/s 744 mmHg 75%
    17:00 +29°C° 0.2 mm 2 m/s 745 mmHg 80%
    18:00 +28°C° 0.2 mm 2 m/s 745 mmHg 85%
    19:00 +27°C° 0.2 mm 2 m/s 746 mmHg 91%
    20:00 +27°C° 0.5 mm 2 m/s 746 mmHg 92%
    21:00 +26°C° 0.5 mm 2 m/s 747 mmHg 93%
    22:00 +26°C° 0.5 mm 2 m/s 747 mmHg 95%
    23:00 +26°C° 1 mm 2 m/s 747 mmHg 95%

    25 Janvier, Vendredi

    Heure Température Précipitation Vent Pression Humidité
    00:00 +26°C° 1 mm 2 m/s 747 mmHg 95%
    01:00 +25°C° 1 mm 1 m/s 746 mmHg 95%
    02:00 +25°C° 0.8 mm 2 m/s 746 mmHg 96%
    03:00 +25°C° 0.8 mm 2 m/s 745 mmHg 96%
    04:00 +25°C° 0.8 mm 2 m/s 745 mmHg 96%
    05:00 +25°C° 0.4 mm 2 m/s 745 mmHg 95%
    06:00 +26°C° 0.4 mm 2 m/s 746 mmHg 95%
    07:00 +26°C° 0.4 mm 2 m/s 746 mmHg 94%
    08:00 +27°C° 0.5 mm 3 m/s 746 mmHg 90%
    09:00 +28°C° 0.5 mm 3 m/s 746 mmHg 87%
    10:00 +29°C° 0.5 mm 3 m/s 747 mmHg 83%
    11:00 +29°C° 0.9 mm 3 m/s 746 mmHg 81%
    12:00 +29°C° 0.9 mm 3 m/s 746 mmHg 79%
    13:00 +30°C° 0.9 mm 3 m/s 745 mmHg 77%
    14:00 +30°C° 1.4 mm 3 m/s 745 mmHg 77%
    15:00 +29°C° 1.4 mm 3 m/s 744 mmHg 77%
    16:00 +29°C° 1.4 mm 3 m/s 744 mmHg 78%
    17:00 +28°C° 0.5 mm 3 m/s 744 mmHg 83%
    18:00 +27°C° 0.5 mm 3 m/s 745 mmHg 88%
    19:00 +26°C° 0.5 mm 3 m/s 745 mmHg 93%
    20:00 +26°C° 1.2 mm 3 m/s 746 mmHg 94%
    21:00 +26°C° 1.2 mm 3 m/s 746 mmHg 94%
    22:00 +26°C° 1.2 mm 3 m/s 746 mmHg 95%
    23:00 +26°C° 1.3 mm 3 m/s 746 mmHg 95%

    26 Janvier, Samedi

    Heure Température Précipitation Vent Pression Humidité
    00:00 +26°C° 1.3 mm 3 m/s 746 mmHg 95%
    01:00 +26°C° 1.3 mm 3 m/s 745 mmHg 95%
    02:00 +26°C° 1 mm 3 m/s 745 mmHg 95%
    03:00 +26°C° 1 mm 3 m/s 744 mmHg 95%
    04:00 +26°C° 1 mm 3 m/s 744 mmHg 95%
    05:00 +26°C° 0.8 mm 3 m/s 744 mmHg 95%
    06:00 +26°C° 0.8 mm 3 m/s 745 mmHg 95%
    07:00 +26°C° 0.8 mm 3 m/s 745 mmHg 95%
    08:00 +26°C° 0.6 mm 3 m/s 745 mmHg 93%
    09:00 +27°C° 0.6 mm 3 m/s 745 mmHg 92%
    10:00 +27°C° 0.6 mm 4 m/s 745 mmHg 91%
    11:00 +27°C° 0.7 mm 3 m/s 745 mmHg 91%
    12:00 +27°C° 0.7 mm 3 m/s 744 mmHg 90%
    13:00 +27°C° 0.7 mm 3 m/s 744 mmHg 89%
    14:00 +27°C° 0.6 mm 3 m/s 743 mmHg 90%
    15:00 +27°C° 0.6 mm 3 m/s 743 mmHg 91%
    16:00 +27°C° 0.6 mm 3 m/s 743 mmHg 91%
    17:00 +26°C° 1.5 mm 2 m/s 743 mmHg 92%
    18:00 +25°C° 1.5 mm 2 m/s 743 mmHg 94%
    19:00 +25°C° 1.5 mm 2 m/s 744 mmHg 95%
    20:00 +25°C° 1.2 mm 2 m/s 744 mmHg 95%
    21:00 +24°C° 1.2 mm 2 m/s 744 mmHg 95%
    22:00 +24°C° 1.2 mm 2 m/s 745 mmHg 96%
    23:00 +24°C° 0.4 mm 3 m/s 744 mmHg 95%

    27 Janvier, Dimanche

    Heure Température Précipitation Vent Pression Humidité
    00:00 +24°C° 0.4 mm 3 m/s 744 mmHg 95%
    01:00 +24°C° 0.4 mm 3 m/s 743 mmHg 95%
    02:00 +24°C° 0.2 mm 3 m/s 743 mmHg 94%
    03:00 +24°C° 0.2 mm 3 m/s 743 mmHg 94%
    04:00 +24°C° 0.2 mm 3 m/s 742 mmHg 94%
    05:00 +24°C° 0 mm 3 m/s 743 mmHg 93%
    06:00 +25°C° 0 mm 3 m/s 743 mmHg 92%
    07:00 +25°C° 0 mm 3 m/s 744 mmHg 91%
    08:00 +25°C° 0.3 mm 4 m/s 744 mmHg 91%
    09:00 +26°C° 0.3 mm 4 m/s 744 mmHg 90%
    10:00 +26°C° 0.3 mm 5 m/s 744 mmHg 89%
    11:00 +26°C° 1.4 mm 5 m/s 744 mmHg 90%
    12:00 +26°C° 1.4 mm 5 m/s 744 mmHg 92%
    13:00 +26°C° 1.4 mm 5 m/s 743 mmHg 93%
    14:00 +26°C° 1.8 mm 5 m/s 743 mmHg 94%
    15:00 +26°C° 1.8 mm 5 m/s 743 mmHg 95%
    16:00 +26°C° 1.8 mm 5 m/s 742 mmHg 96%
    17:00 +26°C° 1.9 mm 5 m/s 743 mmHg 97%
    18:00 +26°C° 1.9 mm 5 m/s 743 mmHg 97%
    19:00 +26°C° 1.9 mm 5 m/s 744 mmHg 97%
    20:00 +26°C° 1.6 mm 4 m/s 744 mmHg 97%
    21:00 +26°C° 1.6 mm 4 m/s 744 mmHg 97%
    22:00 +26°C° 1.6 mm 4 m/s 745 mmHg 97%
    23:00 +26°C° 1.1 mm 3 m/s 744 mmHg 97%
    Voir plus